Starlink 5994

operational
NORAD ID: 56457 Int'l Des: 2023-064 Owner: SPXS Country: US Constellation: starlink
LEOCIRCULAR

About Starlink 5994

Description loading...

Live Position

Loading 3D Globe...

Upcoming Passes

Altitude History

Altitude vs Time

uPlot chart will show altitude changes over time

Two-Line Element Set

1 56457U 23064K 25303.89537573 .00000553 00000-0 54116-4 0 9996
2 56457 69.9987 111.7347 0002612 267.3168 92.7692 14.98324977135801
Epoch: Oct 30, 2025 • Age: 14 hours

Current Status

Altitude 583.1 km
Velocity 7.57 km/s
Sub-Earth Point -33.31°S, 119.82°W
Launch Date May 10, 2023
Age 2.4 years
Type internet

Technical Details

Classification Payload
Mass 305.00 kg
Dry Mass 290.00 kg
Total Mass 305.00 kg
Length 0.20 m
Diameter 2.80 m
Span 9.00 m
Shape Box + pan
Manufacturer SPXS
Bus Type Starlink
Phase Status In Orbit
Owner/State SPXS/US

Large Constellations

Loading constellations...